sat.trackr.live / text

‹ back to catalog

POLAR SCOUT KODIAK

NORAD 43764 · 2018-099G

PAYLOAD ACTIVE UNKNOWN

§ Identity

Operator
Country
US
Launch date
2018-12-03
Launch site
AFWTR
Launch vehicle
Mass (kg)
RCS (m²)

External: N2YO · Heavens-Above · Gunter

§ Orbital elements

Epoch: 2026-08-03T16:03:46.633536Z

Period
87.90 min
Inclination
97.4052°
Eccentricity
0.0014823
Mean motion
16.38230059 rev/d
Perigee alt
160.8 km
Apogee alt
180.2 km
Semi-major
6,548.7 km
B*
8.2859e-4
RAAN
303.9833°
Arg perigee
268.5632°
Mean anomaly
91.3968°
Rev number
42,249

§ Raw data

POLAR SCOUT KODIAK1 43764U 18099G   26215.66928974  .08710049  25424-5  82859-3 0  99942 43764  97.4052 303.9833 0014823 268.5632  91.3968 16.38230059422496

JSON: /api/v1/satellites/43764 · /tle

For live sub-satellite position, see the globe view (requires WebGL).

§ Visibility from observer

Set your observer location to see the next 7 days of passes ≥ 10°. The values pass through the URL so the page stays shareable.

No JS? Fill the form by hand. The geolocation button needs JavaScript.